EA7RX-13 Weather Reports


Display with metric or nautical units.
time (UTC)temp
F
wind
direction
speed
MPH
gust
MPH
rain 1hr
in
rain 24hr
in
rain mn
in
humidity
%
barometer
mb
20260506044350 52 0.0 0.0 0.00 0.00 0.00 10 1011.9
20260506043350 53 0.0 0.0 0.00 0.00 0.00 10 1011.9
20260506042350 52 0.0 0.0 0.00 0.00 0.00 10 1012.0
20260506041350 52 0.0 0.0 0.00 0.00 0.00 10 1011.9
20260506040350 52 0.0 0.0 0.00 0.00 0.00 10 1012.0
20260506035350 52 0.0 0.0 0.00 0.00 0.00 10 1011.9
20260506034350 53 0.0 0.0 0.00 0.00 0.00 10 1011.9
20260506033350 53 0.0 0.0 0.00 0.00 0.00 10 1012.0
20260506032350 53 0.0 0.0 0.00 0.00 0.00 10 1012.0
20260506031350 53 0.0 0.0 0.00 0.00 0.00 10 1012.0
20260506030350 54 0.0 0.0 0.00 0.00 0.00 10 1012.1
20260506025350 54 0.0 0.0 0.00 0.00 0.00 10 1012.0
20260506024350 53 0.0 0.0 0.00 0.00 0.00 10 1012.0
20260506023350 54 0.0 0.0 0.00 0.00 0.00 10 1012.1
20260506022350 54 0.0 0.0 0.00 0.00 0.00 10 1012.1
20260506021350 54 0.0 0.0 0.00 0.00 0.00 10 1012.1
20260506020350 55 0.0 0.0 0.00 0.00 0.00 10 1012.0
20260506015350 55 0.0 0.0 0.00 0.00 0.00 10 1012.1
20260506014350 55 0.0 0.0 0.00 0.00 0.00 10 1011.9
20260506013350 55 0.0 0.0 0.00 0.00 0.00 10 1012.0
20260506012350 55 0.0 0.0 0.00 0.00 0.00 10 1012.1
20260506011350 55 0.0 0.0 0.00 0.00 0.00 10 1012.3
20260506010350 55 0.0 0.0 0.00 0.00 0.00 10 1012.4
20260506005350 55 0.0 0.0 0.00 0.00 0.00 10 1012.4
20260506004350 55 0.0 0.0 0.00 0.00 0.00 10 1012.4
20260506003350 55 0.0 0.0 0.00 0.00 0.00 10 1012.5
20260506002350 55 0.0 0.0 0.00 0.00 0.00 10 1012.6
20260506001350 55 0.0 0.0 0.00 0.00 0.00 10 1012.7
20260506000350 56 0.0 0.0 0.00 0.00 0.00 10 1012.7
20260505235350 56 0.0 0.0 0.00 0.00 0.00 10 1012.8
20260505234350 56 0.0 0.0 0.00 0.00 0.00 10 1012.8
20260505233350 56 0.0 0.0 0.00 0.00 0.00 10 1012.8
20260505232350 56 0.0 0.0 0.00 0.00 0.00 10 1012.9
20260505231350 56 0.0 0.0 0.00 0.00 0.00 10 1012.8
20260505230350 57 0.0 0.0 0.00 0.00 0.00 10 1012.9
20260505225350 57 0.0 0.0 0.00 0.00 0.00 10 1013.0
20260505224350 57 0.0 0.0 0.00 0.00 0.00 10 1012.9
20260505223350 57 0.0 0.0 0.00 0.00 0.00 10 1013.0
20260505222350 58 0.0 0.0 0.00 0.00 0.00 10 1013.0
20260505221350 58 0.0 0.0 0.00 0.00 0.00 10 1012.9
20260505220350 58 0.0 0.0 0.00 0.00 0.00 10 1012.9
20260505215350 58 0.0 0.0 0.00 0.00 0.00 10 1012.9
20260505214350 58 0.0 0.0 0.00 0.00 0.00 10 1012.8
20260505213350 59 0.0 0.0 0.00 0.00 0.00 10 1012.6
20260505212350 59 0.0 0.0 0.00 0.00 0.00 10 1012.6
20260505211350 60 0.0 0.0 0.00 0.00 0.00 10 1012.6
20260505210350 60 0.0 0.0 0.00 0.00 0.00 10 1012.5
20260505205350 60 0.0 0.0 0.00 0.00 0.00 98 1012.4
20260505204350 60 0.0 0.0 0.00 0.00 0.00 10 1012.4
20260505203350 61 0.0 0.0 0.00 0.00 0.00 98 1012.2
20260505202350 62 0.0 0.0 0.00 0.00 0.00 94 1012.1
20260505201350 63 0.0 0.0 0.00 0.00 0.00 75 1011.8
20260505200350 61 0.0 0.0 0.00 0.00 0.00 88 1011.9
20260505195350 63 0.0 0.0 0.00 0.00 0.00 81 1011.6
20260505194350 63 0.0 0.0 0.00 0.00 0.00 72 1011.4
20260505193350 63 0.0 0.0 0.00 0.00 0.00 82 1011.2
20260505192350 64 0.0 0.0 0.00 0.00 0.00 71 1011.3
20260505191350 65 0.0 0.0 0.00 0.00 0.00 62 1011.0
20260505190350 66 0.0 0.0 0.00 0.00 0.00 55 1010.9
20260505185350 67 0.0 0.0 0.00 0.00 0.00 51 1010.6
20260505184350 68 0.0 0.0 0.00 0.00 0.00 50 1010.5
20260505183350 69 0.0 0.0 0.00 0.00 0.00 50 1010.5
20260505182350 69 0.0 0.0 0.00 0.00 0.00 49 1010.5
20260505181350 70 0.0 0.0 0.00 0.00 0.00 44 1010.5
20260505180350 70 0.0 0.0 0.00 0.00 0.00 42 1010.4
20260505175350 71 0.0 0.0 0.00 0.00 0.00 40 1010.3
20260505174350 72 0.0 0.0 0.00 0.00 0.00 41 1010.2
20260505173350 72 0.0 0.0 0.00 0.00 0.00 42 1010.3
20260505172350 72 0.0 0.0 0.00 0.00 0.00 41 1010.2
20260505171350 73 0.0 0.0 0.00 0.00 0.00 41 1010.1
20260505170350 74 0.0 0.0 0.00 0.00 0.00 37 1010.0
20260505165350 75 0.0 0.0 0.00 0.00 0.00 38 1009.9
20260505164350 75 0.0 0.0 0.00 0.00 0.00 38 1010.0
20260505163350 74 0.0 0.0 0.00 0.00 0.00 38 1010.1
20260505162350 75 0.0 0.0 0.00 0.00 0.00 37 1010.2
20260505161350 76 0.0 0.0 0.00 0.00 0.00 35 1010.0
20260505160350 76 0.0 0.0 0.00 0.00 0.00 34 1010.0
20260505153350 74 0.0 0.0 0.00 0.00 0.00 37 1010.2
20260505152350 74 0.0 0.0 0.00 0.00 0.00 38 1010.2
20260505151350 75 0.0 0.0 0.00 0.00 0.00 36 1010.2
20260505150350 78 0.0 0.0 0.00 0.00 0.00 37 1009.9
20260505140350 76 0.0 0.0 0.00 0.00 0.00 38 1010.4
20260505124350 77 0.0 0.0 0.00 0.00 0.00 39 1011.1
20260505123350 77 0.0 0.0 0.00 0.00 0.00 39 1011.1
20260505122350 76 0.0 0.0 0.00 0.00 0.00 40 1011.3
20260505121350 75 0.0 0.0 0.00 0.00 0.00 39 1011.5
20260505120350 75 0.0 0.0 0.00 0.00 0.00 43 1011.7
20260505115350 75 0.0 0.0 0.00 0.00 0.00 41 1011.8
20260505114350 76 0.0 0.0 0.00 0.00 0.00 44 1011.8
20260505113350 73 0.0 0.0 0.00 0.00 0.00 45 1012.2
20260505112350 69 0.0 0.0 0.00 0.00 0.00 48 1012.5
20260505111350 71 0.0 0.0 0.00 0.00 0.00 46 1012.4
20260505110350 73 0.0 0.0 0.00 0.00 0.00 46 1012.2
20260505101350 72 0.0 0.0 0.00 0.00 0.00 48 1012.6
20260505100350 71 0.0 0.0 0.00 0.00 0.00 49 1012.6
20260505095350 68 0.0 0.0 0.00 0.00 0.00 52 1012.9
20260505094350 70 0.0 0.0 0.00 0.00 0.00 53 1012.7
20260505093350 69 0.0 0.0 0.00 0.00 0.00 54 1012.9
20260505092350 69 0.0 0.0 0.00 0.00 0.00 55 1012.8
20260505091350 69 0.0 0.0 0.00 0.00 0.00 58 1012.8
20260505090350 69 0.0 0.0 0.00 0.00 0.00 57 1012.8
20260505085350 69 0.0 0.0 0.00 0.00 0.00 58 1012.9
20260505084350 69 0.0 0.0 0.00 0.00 0.00 59 1012.9
20260505083350 69 0.0 0.0 0.00 0.00 0.00 61 1012.9
20260505082350 67 0.0 0.0 0.00 0.00 0.00 65 1013.2
20260505081350 66 0.0 0.0 0.00 0.00 0.00 67 1013.1
20260505080350 65 0.0 0.0 0.00 0.00 0.00 72 1013.3
20260505075350 63 0.0 0.0 0.00 0.00 0.00 74 1013.6
20260505074350 62 0.0 0.0 0.00 0.00 0.00 89 1013.6
20260505073350 61 0.0 0.0 0.00 0.00 0.00 10 1013.7
20260505072350 59 0.0 0.0 0.00 0.00 0.00 10 1014.0
20260505071350 59 0.0 0.0 0.00 0.00 0.00 10 1014.0
20260505070350 58 0.0 0.0 0.00 0.00 0.00 10 1014.1
20260505065350 57 0.0 0.0 0.00 0.00 0.00 10 1014.2
20260505064350 57 0.0 0.0 0.00 0.00 0.00 10 1014.2
20260505063350 56 0.0 0.0 0.00 0.00 0.00 10 1014.2
20260505062350 56 0.0 0.0 0.00 0.00 0.00 10 1014.2
20260505061350 55 0.0 0.0 0.00 0.00 0.00 10 1014.1
20260505060350 54 0.0 0.0 0.00 0.00 0.00 10 1014.2
20260505055350 54 0.0 0.0 0.00 0.00 0.00 10 1014.2
20260505054350 54 0.0 0.0 0.00 0.00 0.00 10 1014.2
20260505053350 54 0.0 0.0 0.00 0.00 0.00 10 1014.1
20260505052350 54 0.0 0.0 0.00 0.00 0.00 10 1014.0
20260505051350 54 0.0 0.0 0.00 0.00 0.00 10 1014.0
20260505050350 54 0.0 0.0 0.00 0.00 0.00 10 1014.0